NKS1376 KMCO-KFLL

Flight info

Callsign NKS1376
Flight time 0h 35m
Altitude 23000
Route FSHUN4 PLUMR PCOCK TEEKY4
Aircraft A320/M-VGDW/C

Departure

Time 2026-05-04 00:42
Airport Orlando International Airport (KMCO)

Arrival

Time 2026-05-04 01:17
Airport Fort Lauderdale Hollywood International Airport (KFLL)
Time Latitude Longitude Altitude Speed Heading
2026-05-04 00:34 28.43520 -81.31245 102 ft 0 kts 326°
2026-05-04 00:35 28.43511 -81.31238 102 ft 2 kts 326°
2026-05-04 00:35 28.43498 -81.31228 101 ft 2 kts 328°
2026-05-04 00:36 28.43483 -81.31218 101 ft 2 kts 333°
2026-05-04 00:36 28.43468 -81.31211 101 ft 2 kts 356°
2026-05-04 00:36 28.43455 -81.31217 100 ft 1 kts 54°
2026-05-04 00:36 28.43462 -81.31206 99 ft 16 kts 54°
2026-05-04 00:37 28.43631 -81.31158 99 ft 36 kts 341°
2026-05-04 00:37 28.43794 -81.31357 99 ft 33 kts 291°
2026-05-04 00:37 28.43845 -81.31610 101 ft 32 kts 275°
2026-05-04 00:37 28.43814 -81.31839 102 ft 30 kts 216°
2026-05-04 00:38 28.43556 -81.31842 101 ft 39 kts 181°
2026-05-04 00:38 28.43268 -81.31839 97 ft 43 kts 179°
2026-05-04 00:38 28.42984 -81.31836 98 ft 40 kts 179°
2026-05-04 00:38 28.42723 -81.31824 102 ft 37 kts 182°
2026-05-04 00:39 28.42437 -81.31830 102 ft 40 kts 180°
2026-05-04 00:39 28.42254 -81.31931 104 ft 35 kts 239°
2026-05-04 00:39 28.42005 -81.31983 99 ft 38 kts 179°
2026-05-04 00:39 28.41758 -81.31980 97 ft 33 kts 181°
2026-05-04 00:40 28.41683 -81.32043 96 ft 11 kts 272°
2026-05-04 00:40 28.41689 -81.32148 96 ft 22 kts 284°
2026-05-04 00:40 28.41756 -81.32198 97 ft 0 kts 357°
2026-05-04 00:41 28.41923 -81.32199 99 ft 61 kts 359°
2026-05-04 00:41 28.42602 -81.32201 103 ft 134 kts 359°
2026-05-04 00:41 28.43688 -81.32220 517 ft 171 kts
2026-05-04 00:42 28.44990 -81.31837 775 ft 222 kts 15°
2026-05-04 00:42 28.46571 -81.31605 1561 ft 246 kts
2026-05-04 00:42 28.48317 -81.31682 2308 ft 253 kts 358°
2026-05-04 00:42 28.50069 -81.31928 3047 ft 257 kts 354°
2026-05-04 00:43 28.51877 -81.32236 3778 ft 266 kts 352°
2026-05-04 00:43 28.53695 -81.32668 4497 ft 269 kts 347°
2026-05-04 00:43 28.55512 -81.33262 5223 ft 273 kts 341°
2026-05-04 00:43 28.57275 -81.34053 5953 ft 272 kts 329°
2026-05-04 00:44 28.58618 -81.35496 6675 ft 272 kts 301°
2026-05-04 00:44 28.59281 -81.37488 7381 ft 270 kts 281°
2026-05-04 00:44 28.59566 -81.39602 8088 ft 271 kts 275°
2026-05-04 00:44 28.59703 -81.41740 8811 ft 271 kts 272°
2026-05-04 00:45 28.59750 -81.43870 9532 ft 268 kts 270°
2026-05-04 00:45 28.59736 -81.45989 10265 ft 268 kts 267°
2026-05-04 00:45 28.59257 -81.48035 10944 ft 277 kts 242°
2026-05-04 00:45 28.57890 -81.49685 11572 ft 302 kts 216°
2026-05-04 00:46 28.55898 -81.50593 12196 ft 326 kts 198°
2026-05-04 00:46 28.53595 -81.51047 12830 ft 348 kts 187°
2026-05-04 00:46 28.51103 -81.50873 13478 ft 368 kts 178°
2026-05-04 00:46 28.48512 -81.50467 14106 ft 383 kts 176°
2026-05-04 00:47 28.45829 -81.49989 14687 ft 397 kts 176°
2026-05-04 00:47 28.43064 -81.49481 15281 ft 408 kts 176°
2026-05-04 00:47 28.40227 -81.48961 15883 ft 418 kts 176°
2026-05-04 00:47 28.37321 -81.48438 16493 ft 428 kts 176°
2026-05-04 00:48 28.34349 -81.47915 17123 ft 436 kts 177°
2026-05-04 00:48 28.31327 -81.47403 17757 ft 442 kts 178°
2026-05-04 00:48 28.28259 -81.46909 18410 ft 448 kts 178°
2026-05-04 00:48 28.25190 -81.46430 18970 ft 454 kts 179°
2026-05-04 00:49 28.22456 -81.46010 19465 ft 458 kts 179°
2026-05-04 00:49 28.19570 -81.45569 19991 ft 462 kts 179°
2026-05-04 00:49 28.16372 -81.45080 20590 ft 465 kts 179°
2026-05-04 00:49 28.13153 -81.44587 21201 ft 468 kts 179°
2026-05-04 00:50 28.09919 -81.44092 21804 ft 471 kts 179°
2026-05-04 00:50 28.06670 -81.43594 22430 ft 473 kts 179°
2026-05-04 00:50 28.03389 -81.43091 22813 ft 480 kts 179°
2026-05-04 00:50 28.00042 -81.42583 22972 ft 491 kts 179°
2026-05-04 00:51 27.96611 -81.42066 23033 ft 503 kts 179°
2026-05-04 00:51 27.93158 -81.41546 23040 ft 510 kts 179°
2026-05-04 00:51 27.89641 -81.41009 23047 ft 510 kts 179°
2026-05-04 00:51 27.86128 -81.40468 23048 ft 510 kts 179°
2026-05-04 00:52 27.83021 -81.39989 23045 ft 509 kts 179°
2026-05-04 00:52 27.79512 -81.39447 23048 ft 509 kts 179°
2026-05-04 00:52 27.76000 -81.38905 23047 ft 509 kts 179°
2026-05-04 00:52 27.72667 -81.38392 23048 ft 509 kts 179°
2026-05-04 00:53 27.69157 -81.37851 23042 ft 509 kts 179°
2026-05-04 00:53 27.65649 -81.37311 23045 ft 509 kts 179°
2026-05-04 00:53 27.62188 -81.36780 23043 ft 508 kts 179°
2026-05-04 00:53 27.58687 -81.36243 23048 ft 508 kts 179°
2026-05-04 00:54 27.55598 -81.35770 23046 ft 508 kts 179°
2026-05-04 00:54 27.52098 -81.35233 23082 ft 508 kts 179°
2026-05-04 00:54 27.48594 -81.34697 23076 ft 508 kts 179°
2026-05-04 00:54 27.45091 -81.34162 23078 ft 508 kts 179°
2026-05-04 00:55 27.41588 -81.33628 23076 ft 508 kts 179°
2026-05-04 00:55 27.38090 -81.33094 23076 ft 508 kts 179°
2026-05-04 00:55 27.34616 -81.32564 23073 ft 508 kts 179°
2026-05-04 00:55 27.31175 -81.32040 23070 ft 508 kts 179°
2026-05-04 00:56 27.27669 -81.31506 23065 ft 508 kts 179°
2026-05-04 00:56 27.24166 -81.30972 23058 ft 508 kts 179°
2026-05-04 00:56 27.20664 -81.30440 23057 ft 508 kts 179°
2026-05-04 00:56 27.17164 -81.29908 23050 ft 508 kts 179°
2026-05-04 00:57 27.13660 -81.29376 23048 ft 508 kts 179°
2026-05-04 00:57 27.10161 -81.28846 23040 ft 508 kts 179°
2026-05-04 00:57 27.06656 -81.28314 23044 ft 508 kts 179°
2026-05-04 00:57 27.03152 -81.27784 23042 ft 508 kts 179°
2026-05-04 00:58 26.99693 -81.27261 23042 ft 508 kts 179°
2026-05-04 00:58 26.96178 -81.26732 22539 ft 511 kts 179°
2026-05-04 00:58 26.92641 -81.26202 21958 ft 513 kts 179°
2026-05-04 00:58 26.89584 -81.25735 21456 ft 487 kts 179°
2026-05-04 00:59 26.86330 -81.25225 20935 ft 459 kts 179°
2026-05-04 00:59 26.83238 -81.24739 20454 ft 442 kts 179°
2026-05-04 00:59 26.80191 -81.24273 20004 ft 442 kts 179°
2026-05-04 00:59 26.77146 -81.23819 19559 ft 441 kts 179°
2026-05-04 01:00 26.74114 -81.23369 19118 ft 438 kts 179°
2026-05-04 01:00 26.71141 -81.22930 18693 ft 437 kts 179°
2026-05-04 01:00 26.68131 -81.22486 18258 ft 435 kts 179°
2026-05-04 01:00 26.65135 -81.22043 17766 ft 433 kts 178°
2026-05-04 01:01 26.62165 -81.21601 17304 ft 430 kts 178°
2026-05-04 01:01 26.59203 -81.21161 16845 ft 429 kts 178°
2026-05-04 01:01 26.56255 -81.20723 16404 ft 427 kts 178°
2026-05-04 01:01 26.53319 -81.20285 15979 ft 424 kts 178°
2026-05-04 01:02 26.50400 -81.19849 15569 ft 422 kts 178°
2026-05-04 01:02 26.47487 -81.19413 15155 ft 422 kts 178°
2026-05-04 01:02 26.44624 -81.18984 14767 ft 419 kts 177°
2026-05-04 01:02 26.41743 -81.18553 14406 ft 417 kts 177°
2026-05-04 01:03 26.38871 -81.18123 14038 ft 417 kts 177°
2026-05-04 01:03 26.36004 -81.17693 13662 ft 414 kts 177°
2026-05-04 01:03 26.33152 -81.17263 13272 ft 412 kts 176°
2026-05-04 01:03 26.30321 -81.16796 12873 ft 413 kts 172°
2026-05-04 01:04 26.27629 -81.15615 12374 ft 420 kts 153°
2026-05-04 01:04 26.25381 -81.13544 11885 ft 423 kts 135°
2026-05-04 01:04 26.23531 -81.11003 11398 ft 419 kts 130°
2026-05-04 01:04 26.21851 -81.08449 10949 ft 398 kts 128°
2026-05-04 01:05 26.20298 -81.06030 10537 ft 381 kts 128°
2026-05-04 01:05 26.18784 -81.03692 10150 ft 364 kts 129°
2026-05-04 01:05 26.17467 -81.01712 9816 ft 352 kts 129°
2026-05-04 01:05 26.16258 -80.99414 9532 ft 339 kts 117°
2026-05-04 01:06 26.15370 -80.97041 9254 ft 326 kts 112°
2026-05-04 01:06 26.14729 -80.94961 9021 ft 315 kts 109°
2026-05-04 01:06 26.14117 -80.92656 8774 ft 307 kts 107°
2026-05-04 01:06 26.13587 -80.90365 8537 ft 306 kts 105°
2026-05-04 01:07 26.13118 -80.88092 8315 ft 305 kts 103°
2026-05-04 01:07 26.12685 -80.85780 8099 ft 304 kts 102°
2026-05-04 01:07 26.12289 -80.83484 7878 ft 301 kts 101°
2026-05-04 01:07 26.11925 -80.81190 7656 ft 301 kts 101°
2026-05-04 01:08 26.11621 -80.79167 7469 ft 301 kts 100°
2026-05-04 01:08 26.11291 -80.76880 7241 ft 298 kts 100°
2026-05-04 01:08 26.10970 -80.74607 7037 ft 296 kts 99°
2026-05-04 01:08 26.10656 -80.72344 6825 ft 295 kts 99°
2026-05-04 01:09 26.10349 -80.70121 6614 ft 294 kts 99°
2026-05-04 01:09 26.10040 -80.67877 6419 ft 292 kts 99°
2026-05-04 01:09 26.09733 -80.65652 6219 ft 292 kts 99°
2026-05-04 01:09 26.09424 -80.63419 6020 ft 291 kts 99°
2026-05-04 01:10 26.09116 -80.61203 5819 ft 289 kts 99°
2026-05-04 01:10 26.08810 -80.58996 5623 ft 288 kts 99°
2026-05-04 01:10 26.08503 -80.56796 5458 ft 287 kts 99°
2026-05-04 01:10 26.08144 -80.54615 5257 ft 290 kts 102°
2026-05-04 01:11 26.07744 -80.52431 4923 ft 285 kts 102°
2026-05-04 01:11 26.07348 -80.50332 4585 ft 269 kts 102°
2026-05-04 01:11 26.07037 -80.48364 4271 ft 255 kts 97°
2026-05-04 01:11 26.06899 -80.46466 4117 ft 238 kts 92°
2026-05-04 01:12 26.06875 -80.44652 4052 ft 234 kts 91°
2026-05-04 01:12 26.06838 -80.42843 4024 ft 234 kts 92°
2026-05-04 01:12 26.06795 -80.41040 4017 ft 235 kts 92°
2026-05-04 01:12 26.06755 -80.39219 4016 ft 234 kts 92°
2026-05-04 01:13 26.06714 -80.37389 3778 ft 238 kts 92°
2026-05-04 01:13 26.06696 -80.35566 3452 ft 233 kts 91°
2026-05-04 01:13 26.06689 -80.33787 3135 ft 227 kts 91°
2026-05-04 01:13 26.06681 -80.32065 2839 ft 224 kts 90°
2026-05-04 01:14 26.06672 -80.30365 2545 ft 216 kts 90°
2026-05-04 01:14 26.06662 -80.28726 2256 ft 208 kts 90°
2026-05-04 01:14 26.06652 -80.27140 1985 ft 201 kts 90°
2026-05-04 01:14 26.06644 -80.25619 1731 ft 189 kts 89°
2026-05-04 01:15 26.06637 -80.24211 1489 ft 175 kts 89°
2026-05-04 01:15 26.06630 -80.22897 1273 ft 166 kts 89°
2026-05-04 01:15 26.06621 -80.21619 1064 ft 165 kts 89°
2026-05-04 01:15 26.06614 -80.20376 834 ft 156 kts 88°
2026-05-04 01:16 26.06603 -80.19231 639 ft 144 kts 88°
2026-05-04 01:16 26.06603 -80.18117 454 ft 145 kts 88°
2026-05-04 01:16 26.06605 -80.17005 263 ft 143 kts 88°
2026-05-04 01:16 26.06596 -80.15895 90 ft 143 kts 90°
2026-05-04 01:17 26.06579 -80.14803 36 ft 137 kts 88°
2026-05-04 01:17 26.06576 -80.13878 75 ft 93 kts 89°
2026-05-04 01:17 26.06610 -80.13501 75 ft 19 kts 41°
2026-05-04 01:17 26.06729 -80.13512 70 ft 14 kts 310°
2026-05-04 01:18 26.06745 -80.13590 66 ft 7 kts 273°
2026-05-04 01:18 26.06742 -80.13751 75 ft 28 kts 270°
2026-05-04 01:18 26.06742 -80.13973 75 ft 28 kts 270°
2026-05-04 01:18 26.06715 -80.14201 43 ft 34 kts 291°
2026-05-04 01:19 26.06860 -80.14346 16 ft 15 kts 300°
2026-05-04 01:19 26.06859 -80.14457 16 ft 8 kts 266°
2026-05-04 01:19 26.06863 -80.14499 16 ft 8 kts 296°
2026-05-04 01:19 26.06887 -80.14516 16 ft 1 kts
2026-05-04 01:20 26.06889 -80.14516 16 ft 0 kts